Location: Alphen aan den Rijn
(52.1277°N, 4.6689°E)
Time: 06:37:14
(UTC+01:00)

N. Korean satellite - Visible Passes

Search period start: 22 November 2017 00:00
Search period end: 02 December 2017 00:00
Orbit: 460 x 514 km, 97.2° (Epoch: 21 November)

Date Brightness Start Highest point End Pass type
(mag) Time Alt. Az. Time Alt. Az. Time Alt. Az.
22 Nov 10.1 06:19:22 10° ENE 06:20:51 12° E 06:22:20 10° ESE visible
22 Nov 6.5 18:32:38 10° SSE 18:36:10 84° WSW 18:39:48 10° NNW visible
23 Nov 7.4 07:27:38 10° NNE 07:31:21 60° E 07:35:04 10° S visible
23 Nov 6.6 18:09:14 10° SSE 18:12:42 53° ENE 18:16:15 10° N visible
23 Nov 9.7 19:44:27 10° SW 19:46:34 15° W 19:48:43 10° NW visible
24 Nov 8.6 07:04:20 10° NNE 07:07:47 34° E 07:11:14 10° SSE visible
24 Nov 7.3 17:46:09 10° SE 17:49:18 30° ENE 17:52:32 10° N visible
24 Nov 8.9 19:19:51 10° SSW 19:22:52 25° W 19:25:57 10° NW visible
25 Nov 9.6 06:41:17 10° NE 06:44:08 20° E 06:46:58 10° SE visible
25 Nov 8.0 17:23:25 10° ESE 17:25:59 19° ENE 17:28:36 10° NNE visible
25 Nov 7.7 18:55:47 10° S 18:59:14 45° W 19:02:45 10° NNW visible
26 Nov 10.1 06:18:53 10° ENE 06:20:23 12° E 06:21:53 10° ESE visible
26 Nov 6.6 18:32:06 10° SSE 18:35:40 84° WSW 18:39:21 10° NNW visible
27 Nov 7.4 07:27:09 10° NNE 07:30:52 60° E 07:34:36 10° S visible
27 Nov 6.6 18:08:41 10° SSE 18:12:11 53° ENE 18:15:47 10° N visible
27 Nov 9.7 19:43:52 10° SW 19:46:03 15° W 19:48:17 10° NW visible
28 Nov 8.6 07:03:49 10° NNE 07:07:17 33° E 07:10:44 10° SSE visible
28 Nov 7.3 17:45:35 10° SE 17:48:47 30° ENE 17:52:03 10° N visible
28 Nov 8.8 19:19:16 10° SSW 19:22:19 26° W 19:25:27 10° NW visible
29 Nov 9.6 06:40:45 10° NE 06:43:37 20° E 06:46:26 10° SE visible
29 Nov 8.0 17:22:50 10° ESE 17:25:26 19° ENE 17:28:06 10° NNE visible
29 Nov 7.7 18:55:12 10° S 18:58:40 45° W 19:02:14 10° NNW visible
30 Nov 10.1 06:18:21 10° ENE 06:19:50 12° E 06:21:20 10° ESE visible
30 Nov 6.6 18:31:29 10° SSE 18:35:06 85° WSW 18:38:49 10° NNW visible
01 Dec 7.4 07:26:34 10° NNE 07:30:19 60° E 07:34:03 10° S visible
01 Dec 6.7 18:08:03 10° SSE 18:11:35 53° ENE 18:15:13 10° N visible
01 Dec 9.7 19:43:12 10° SW 19:45:27 16° W 19:47:44 10° NW visible
